Showing default

GEN1A-2, 69005

AKA "GEN1A-2" on Space-Track | Orbit data source: Space-Track

GEN1A-2, 69005 is an American payload satellite in SSO that was launched on Sun, 03 May 2026 UTC via an FALCON 9 launch vehicle from the Air Force Western Test Range (AFWTR). Payload-class satellites include a variety of spacecraft equipped with specific instruments for various scientific and technological missions. These include communications satellites like Starlink; space stations such as the ISS; scientific satellites like the Hubble; Earth observation satellites from companies like Planet Labs, Umbra, and HawkEye 360; GPS; miniature CubeSats for education and research; and military/defense satellites.

Loading next visibility...
Identifier
69005, 2026-100AB
Orbit
SSO
Country
Flag of USUS
Related business
None
Manufacturer
Unknown
Mission
Operational spacecraft
Bus & Motor
Unknown
Mass
Unknown
Launch date (UTC)
2026-05-03 (2 months ago)
Launch vehicle
FALCON 9
Launch site
Air Force Western Test Range (AFWTR)
Object type
Payload
Rocket body
Debris
Shape & HBR
Unknown shape, 14.5 m
Radar Cross Section
Medium (>0.1 m² and <1 m²)

Expand to show TLE details & history
Last TLE update: 14 hours ago

TLE from 14 hours ago
0 GEN1A-2
1 69005U 26100AB  26175.20227339  .00003305  00000-0  15506-3 0  9999
2 69005  97.4031  72.8835 0005362  14.9999 345.1394 15.20338326  7881
Epoch: 2026-06-24T04:51Z
TLE epoch observation values (Epoch: 2026-06-24T04:51:16.420Z)
Latitude
-0.00009°
Longitude
87.70222°
Altitude
504.342 km
Speed
7.614 km/s
True Right ascension
04h 51m 32s
True Declination
0° 00' 00"
Sunlit
Object was in daylight at epoch
Visualization orbit readout
Latitude
Unknown
Longitude
Unknown
Altitude
Unknown
Speed
Unknown
Apparent Right ascension
Unknown
Apparent Declination
Unknown
Sunlit
N/A
Visualization observer readout
Local Sidereal Time
05:58:23
Azimuth
Unknown
Elevation
Unknown
Doppler factor
Unknown
Orbital elements
Apogee altitude
505.474 km
Perigee altitude
498.096 km
Semi-major axis
6,879.922 km
Eccentricity
0.00054
Inclination
97.4031°
RAAN
72.8835°
Arg. of periapsis
14.9999°
True anomaly
345.12363°
Mean anomaly
345.1394°
Eccentric anomaly
345.13152°
Mean motion
3.80336 °/min
Orbital period
94.65 mins
BSTAR
0.00015506
Loading maneuver chart data...
Computing Atmospheric mass density...
Loading historical data...
Loading historical data...
Loading historical data...
Loading historical data...
Loading historical data...
Loading historical data...
Loading historical data...

Documentation

Showing up to 5 results
|